Location: Chin
(49.7667°N, 112.4500°W)
Time: 11:49:43
(UTC+00:00)

N. Korean satellite - Pass Details

Date: 08 December 2021
Orbit: 447 x 491 km, 97.3° (Epoch: 21 January)

Event Time Altitude Azimuth Distance (km) Brightness Sun altitude
Rises 00:59:05 0° 211° (SSW) 2,514 11.0 -13.7°
Reaches altitude 10° 01:02:03 10° 239° (WSW) 1,631 10.6 -14.1°
Maximum altitude 01:03:49 13° 270° (W) 1,432 10.1 -14.4°
Drops below altitude 10° 01:05:36 10° 301° (WNW) 1,625 9.8 -14.7°
Sets 01:08:32 0° 329° (NNW) 2,496 10.4 -15.1°
